TimeEDT,TemperatureF,Dew PointF,Humidity,Sea Level PressureIn,VisibilityMPH,Wind Direction,Wind SpeedMPH,Gust SpeedMPH,PrecipitationIn,Events,Conditions,WindDirDegrees,DateUTC
12:15 AM,73.4,72.7,98,30.09,7.0,Calm,Calm,-,N/A,,Clear,0,2013-09-07 04:15:00
12:35 AM,72.9,72.7,99,30.09,5.0,Calm,Calm,-,N/A,,Clear,0,2013-09-07 04:35:00
12:55 AM,72.3,72.0,99,30.08,4.0,Calm,Calm,-,N/A,,Clear,0,2013-09-07 04:55:00
1:15 AM,72.5,72.1,99,30.09,7.0,Calm,Calm,-,N/A,,Clear,0,2013-09-07 05:15:00
1:35 AM,72.0,71.1,97,30.09,10.0,Calm,Calm,-,N/A,,Clear,0,2013-09-07 05:35:00
1:55 AM,71.2,71.1,99,30.09,5.0,Calm,Calm,-,N/A,,Clear,0,2013-09-07 05:55:00
2:15 AM,71.6,71.2,99,30.09,7.0,Calm,Calm,-,N/A,,Clear,0,2013-09-07 06:15:00
2:35 AM,71.6,71.4,99,30.09,5.0,Calm,Calm,-,N/A,,Clear,0,2013-09-07 06:35:00
2:55 AM,71.1,70.5,98,30.09,4.0,Calm,Calm,-,N/A,,Clear,0,2013-09-07 06:55:00
3:15 AM,70.9,70.9,100,30.08,1.8,Calm,Calm,-,N/A,,Mist,0,2013-09-07 07:15:00
3:35 AM,70.7,70.7,100,30.08,4.0,Calm,Calm,-,N/A,,Clear,0,2013-09-07 07:35:00
3:55 AM,70.0,70.0,100,30.08,0.5,Calm,Calm,-,N/A,Fog,Fog,0,2013-09-07 07:55:00
4:15 AM,70.2,70.2,100,30.08,3.0,Calm,Calm,-,N/A,,Clear,0,2013-09-07 08:15:00
4:35 AM,69.4,69.4,100,30.08,1.0,Calm,Calm,-,N/A,,Mist,0,2013-09-07 08:35:00
4:55 AM,69.4,69.4,100,30.08,0.8,Calm,Calm,-,N/A,,Mist,0,2013-09-07 08:55:00
5:15 AM,70.0,70.0,100,30.09,1.0,Calm,Calm,-,N/A,,Mist,0,2013-09-07 09:15:00
5:35 AM,69.3,69.3,100,30.08,0.2,Calm,Calm,-,N/A,Fog,Fog,0,2013-09-07 09:35:00
5:55 AM,69.1,69.1,100,30.08,0.5,Calm,Calm,-,N/A,Fog,Fog,0,2013-09-07 09:55:00
6:15 AM,68.9,68.9,100,30.09,0.5,Calm,Calm,-,N/A,Fog,Fog,0,2013-09-07 10:15:00
6:35 AM,69.1,69.1,100,30.09,0.8,Calm,Calm,-,N/A,,Mist,0,2013-09-07 10:35:00
6:55 AM,68.5,68.5,100,30.10,0.5,Calm,Calm,-,N/A,Fog,Fog,0,2013-09-07 10:55:00
7:15 AM,68.5,68.5,100,30.10,0.2,Calm,Calm,-,N/A,Fog,Fog,0,2013-09-07 11:15:00
7:35 AM,68.2,68.2,100,30.10,0.2,Calm,Calm,-,N/A,Fog,Fog,0,2013-09-07 11:35:00
7:55 AM,69.4,69.4,100,30.11,2.5,Calm,Calm,-,N/A,,Clear,0,2013-09-07 11:55:00
8:15 AM,70.7,70.7,100,30.11,5.0,Calm,Calm,-,N/A,,Clear,0,2013-09-07 12:15:00
8:35 AM,72.5,72.5,100,30.11,7.0,Calm,Calm,-,N/A,,Clear,0,2013-09-07 12:35:00
8:55 AM,75.6,73.2,92,30.11,10.0,East,3.5,-,N/A,,Clear,80,2013-09-07 12:55:00
9:15 AM,77.9,73.4,86,30.11,10.0,East,4.6,-,N/A,,Clear,100,2013-09-07 13:15:00
9:35 AM,79.5,73.0,80,30.12,10.0,East,4.6,-,N/A,,Clear,90,2013-09-07 13:35:00
9:55 AM,81.0,73.0,77,30.12,10.0,East,3.5,-,N/A,,Clear,100,2013-09-07 13:55:00
10:15 AM,82.4,73.6,75,30.12,10.0,Calm,Calm,-,N/A,,Scattered Clouds,0,2013-09-07 14:15:00
10:35 AM,84.4,74.1,71,30.13,10.0,East,3.5,-,N/A,,Clear,90,2013-09-07 14:35:00
10:55 AM,85.1,73.2,67,30.13,10.0,Calm,Calm,-,N/A,,Clear,0,2013-09-07 14:55:00
11:15 AM,86.5,72.7,63,30.13,10.0,ESE,4.6,-,N/A,,Clear,120,2013-09-07 15:15:00
11:35 AM,87.1,72.3,61,30.13,10.0,East,3.5,-,N/A,,Clear,90,2013-09-07 15:35:00
11:55 AM,87.1,72.1,61,30.12,10.0,North,3.5,-,N/A,,Scattered Clouds,350,2013-09-07 15:55:00
12:15 PM,88.0,71.6,58,30.12,10.0,ENE,3.5,-,N/A,,Scattered Clouds,70,2013-09-07 16:15:00
12:35 PM,87.4,70.3,57,30.11,10.0,Calm,Calm,-,N/A,,Mostly Cloudy,0,2013-09-07 16:35:00
12:55 PM,88.5,69.1,52,30.11,10.0,ENE,4.6,-,N/A,,Scattered Clouds,70,2013-09-07 16:55:00
1:15 PM,90.0,70.7,53,30.11,10.0,ENE,5.8,-,N/A,,Scattered Clouds,70,2013-09-07 17:15:00
1:35 PM,89.4,69.4,52,30.10,10.0,ENE,8.1,-,N/A,,Scattered Clouds,60,2013-09-07 17:35:00
1:55 PM,90.7,68.9,49,30.10,10.0,NE,9.2,-,N/A,,Scattered Clouds,40,2013-09-07 17:55:00
2:15 PM,90.5,67.3,46,30.09,10.0,Calm,Calm,-,N/A,,Scattered Clouds,0,2013-09-07 18:15:00
2:35 PM,87.8,68.7,53,30.09,10.0,NNE,5.8,-,N/A,,Scattered Clouds,30,2013-09-07 18:35:00
2:55 PM,91.0,68.0,47,30.08,10.0,NE,6.9,-,N/A,,Mostly Cloudy,40,2013-09-07 18:55:00
3:15 PM,91.2,67.5,45,30.07,10.0,East,5.8,-,N/A,,Scattered Clouds,80,2013-09-07 19:15:00
3:35 PM,88.5,68.5,51,30.07,10.0,ENE,3.5,-,N/A,,Scattered Clouds,60,2013-09-07 19:35:00
3:55 PM,91.9,68.0,45,30.06,10.0,North,4.6,-,N/A,,Clear,10,2013-09-07 19:55:00
4:15 PM,91.2,66.4,44,30.05,10.0,ENE,3.5,-,N/A,,Clear,60,2013-09-07 20:15:00
4:35 PM,91.4,65.1,42,30.05,10.0,Calm,Calm,-,N/A,,Clear,0,2013-09-07 20:35:00
4:55 PM,89.6,66.4,46,30.04,10.0,East,3.5,-,N/A,,Clear,80,2013-09-07 20:55:00
5:15 PM,90.7,66.9,45,30.04,10.0,ENE,5.8,-,N/A,,Scattered Clouds,70,2013-09-07 21:15:00
5:35 PM,87.1,68.9,55,30.03,10.0,Calm,Calm,-,N/A,,Clear,0,2013-09-07 21:35:00
5:55 PM,87.6,69.6,55,30.03,10.0,NE,4.6,-,N/A,,Scattered Clouds,40,2013-09-07 21:55:00
6:15 PM,89.4,68.0,49,30.03,10.0,NE,4.6,-,N/A,,Scattered Clouds,40,2013-09-07 22:15:00
6:35 PM,88.5,67.6,50,30.02,10.0,NE,3.5,-,N/A,,Clear,40,2013-09-07 22:35:00
6:55 PM,87.1,69.1,55,30.02,10.0,Calm,Calm,-,N/A,,Clear,0,2013-09-07 22:55:00
7:15 PM,84.2,72.1,67,30.02,10.0,Calm,Calm,-,N/A,,Clear,0,2013-09-07 23:15:00
7:35 PM,81.3,71.6,72,30.02,10.0,Calm,Calm,-,N/A,,Clear,0,2013-09-07 23:35:00
7:55 PM,79.0,72.9,81,30.03,10.0,Calm,Calm,-,N/A,,Clear,0,2013-09-07 23:55:00
8:15 PM,77.0,73.9,90,30.03,10.0,Calm,Calm,-,N/A,,Clear,0,2013-09-08 00:15:00
8:35 PM,76.3,73.8,92,30.03,10.0,Calm,Calm,-,N/A,,Clear,0,2013-09-08 00:35:00
8:55 PM,74.3,73.2,96,30.04,10.0,Calm,Calm,-,N/A,,Clear,0,2013-09-08 00:55:00
9:15 PM,74.1,73.0,96,30.05,10.0,Calm,Calm,-,N/A,,Clear,0,2013-09-08 01:15:00
9:35 PM,73.4,73.0,99,30.05,7.0,Calm,Calm,-,N/A,,Clear,0,2013-09-08 01:35:00
9:55 PM,73.8,72.5,96,30.05,10.0,Calm,Calm,-,N/A,,Clear,0,2013-09-08 01:55:00
10:15 PM,72.5,72.5,100,30.06,2.0,Calm,Calm,-,N/A,,Clear,0,2013-09-08 02:15:00
10:35 PM,72.0,72.0,100,30.06,0.2,Calm,Calm,-,N/A,Fog,Fog,0,2013-09-08 02:35:00
10:55 PM,71.6,71.6,100,30.06,0.2,Calm,Calm,-,N/A,Fog,Fog,0,2013-09-08 02:55:00
11:15 PM,71.1,71.1,100,30.05,0.2,Calm,Calm,-,N/A,Fog,Fog,0,2013-09-08 03:15:00
11:35 PM,70.9,70.9,100,30.05,0.5,Calm,Calm,-,N/A,Fog,Fog,0,2013-09-08 03:35:00
11:55 PM,70.7,70.7,100,30.05,1.0,Calm,Calm,-,N/A,,Mist,0,2013-09-08 03:55:00